Information Storage

This is the current data collected from the Raspberry Pis. Data is sampled asynchronously. The server scripts process and synchronize the data before storage.


Time PV Temperature (F) Irradiance (W/m2) Die Temperature (F) PV Voltage (V) Forecasted Irradiance (W/m2) Forecasted Power (W)
3/14/17 03:52:21 20.04 0 32.06 0.26
3/14/17 03:47:21 21.57 0 32.11 0.26
3/14/17 03:42:22 18.75 0 32.06 0.26
3/14/17 03:37:22 21.54 0 31.94 0
3/14/17 03:32:22 20.69 0 31.94 0
3/14/17 03:27:28 21.62 0 32 0.26
3/14/17 03:22:23 21.44 0 31.66 0.53
3/14/17 03:17:23 21.36 0 31.61 0.53
3/14/17 03:12:24 21.53 0 31.49 0.13
3/14/17 03:07:24 20.14 0 31.27 0
3/14/17 03:02:24 21.04 0 31.16 0
3/14/17 02:57:24 20.57 0 30.87 0.53
3/14/17 02:52:25 21.33 0 31.38 0.53
3/14/17 02:47:25 27.18 0 31.72 0
3/14/17 02:42:25 21.18 0 31.27 0.13
3/14/17 02:37:26 20.24 0 31.1 0
3/14/17 02:32:26 19.72 0 31.32 0.13
3/14/17 02:27:36 20.18 0 30.76 0.26
3/14/17 02:22:27 19.56 0 30.37 0.66
3/14/17 02:17:27 19.71 0 30.14 0.53
3/14/17 02:12:27 19.7 0 30.48 0.26
3/14/17 02:07:28 19.43 0 29.97 0
3/14/17 02:02:28 20.24 0 30.03 0.53
3/14/17 01:57:28 18.66 0 30.54 0
3/14/17 01:52:34 22.03 0 30.87 0
3/14/17 01:47:29 14.17 0 30.03 0.13
3/14/17 01:42:29 16.93 0 30.26 0.66
3/14/17 01:37:29 18.81 0 29.92 0
3/14/17 01:32:35 21.57 0 30.31 0.13
3/14/17 01:27:30 21.1 0 30.03 0
3/14/17 01:22:30 20.44 0 30.09 0
3/14/17 01:17:31 19.5 0 29.97 0.39
3/14/17 01:12:31 19.54 0 30.59 0.53
3/14/17 01:07:31 18.11 0 30.59 0
3/14/17 01:02:32 19.97 0 30.59 0.39
3/14/17 00:57:32 20.12 0 30.76 0
3/14/17 00:52:32 16.22 0 31.21 0
3/14/17 00:47:33 20.41 0 30.65 0.53
3/14/17 00:42:33 18.12 0 31.66 0
3/14/17 00:37:33 17.72 0 30.82 0.13
3/14/17 00:32:34 18.64 0 29.69 0.26
3/14/17 00:27:34 19.12 0 29.58 0.79
3/14/17 00:22:34 19.76 0 29.69 0.26
3/14/17 00:17:40 19.72 0 30.2 0.13
3/14/17 00:12:40 19.48 0 30.26 0.66
3/14/17 00:07:35 18.99 0 31.32 0.39
3/14/17 00:02:35 19.72 0 29.47 0.53
3/13/17 23:57:41 19.25 0 29.58 1.18
3/13/17 23:52:36 19.64 0 29.36 1.18
3/13/17 23:47:36 20.42 0 29.58 0.92
3/13/17 23:42:37 19.84 0 29.81 1.58
3/13/17 23:37:37 22.8 0 30.03 1.71
3/13/17 23:32:37 19.76 0 30.48 1.97
3/13/17 23:27:38 22.01 0 30.76 3.15
3/13/17 23:22:38 18.43 0 30.65 3.15
3/13/17 23:17:38 21.95 0 31.49 2.5
3/13/17 23:12:39 22.01 0 32.17 2.36
3/13/17 23:07:39 21.38 0 31.72 2.36
3/13/17 23:02:44 20.74 0 31.55 1.71
3/13/17 22:57:48 22.39 0 31.94 2.1
3/13/17 22:52:40 20.76 0 32 1.45
3/13/17 22:47:40 20.07 0 32.22 1.31
3/13/17 22:42:40 21.09 0 32.79 1.45
3/13/17 22:37:41 22.02 0 32.9 0.92
3/13/17 22:32:41 21.95 0 32.17 1.31
3/13/17 22:27:41 21.95 0 32.17 1.84
3/13/17 22:22:42 20.94 0 32.28 1.71
3/13/17 22:17:42 23.01 0 32.73 1.05
3/13/17 22:12:42 22.7 0 32.34 1.97
3/13/17 22:07:42 22.66 0 32.45 0.66
3/13/17 22:02:43 21.77 0 32.17 1.18
3/13/17 21:57:43 21.42 0 32.62 1.05
3/13/17 21:52:43 21.9 0 32.9 0.92
3/13/17 21:47:44 22.02 0 33.24 0.79
3/13/17 21:42:44 22.59 0 33.07 1.58
3/13/17 21:37:44 21.06 0 32.96 1.18
3/13/17 21:32:45 22.09 0 32.96 1.31
3/13/17 21:27:45 21.84 0 33.58 0.66
3/13/17 21:22:50 21.63 0 33.07 1.18
3/13/17 21:17:46 22.26 0 33.58 1.84
3/13/17 21:12:46 21.96 0 33.58 1.45
3/13/17 21:07:46 22.18 0 33.74 1.71
3/13/17 21:02:46 23.29 0 33.91 1.45
3/13/17 20:57:57 24.26 0 33.69 0.92
3/13/17 20:52:47 23.53 0 33.58 1.18
3/13/17 20:47:49 20.82 0 33.29 0.66
3/13/17 20:42:53 25.7 0 33.07 0.53
3/13/17 20:37:48 22.19 0 34.14 0.26
3/13/17 20:32:53 22.64 0 33.97 1.45
3/13/17 20:27:49 23.21 0 34.14 0.66
3/13/17 20:22:49 24.47 0 34.47 0.66
3/13/17 20:17:49 22.2 0 34.47 1.05
3/13/17 20:12:50 25.35 0 34.42 1.05
3/13/17 20:07:50 22.36 0 34.7 0.79
3/13/17 20:02:50 23.88 0 35.43 1.18
3/13/17 19:57:50 22.03 0 35.15 1.05
3/13/17 19:52:51 25.23 0 35.04 1.97
3/13/17 19:47:51 23.38 0 34.98 1.18
3/13/17 19:42:51 24.04 0 35.32 1.18
3/13/17 19:37:52 22.87 0 35.43 1.58
3/13/17 19:32:57 24.01 0 35.77 2.36
3/13/17 19:27:52 25.71 0 35.99 3.68
3/13/17 19:22:53 29.21 0 36.05 11.96
3/13/17 19:17:53 26.52 0 36.22 22.6
3/13/17 19:12:56 27.04 0 36.78 30.35
3/13/17 19:07:53 25.75 0 36.78 42.17
3/13/17 19:02:54 26.65 0 36.89 54.26
3/13/17 18:57:59 26.62 0 37.29 71.86
3/13/17 18:52:54 32.02 0 37.29 82.11
3/13/17 18:47:55 30.2 0 37.57 90.91
3/13/17 18:42:55 25.29 0 37.96 98.67
3/13/17 18:37:55 27.49 0 38.41 101.69
3/13/17 18:33:01 29.36 0 38.24 100.77
3/13/17 18:27:56 31.99 0 39.43 104.71
3/13/17 18:22:59 28.91 0 39.65 110.36
3/13/17 18:17:56 30.16 0 39.88 108.26
3/13/17 18:13:02 30.44 24.4141 39.59 109.31
3/13/17 18:08:07 34.23 0 39.71 112.85
3/13/17 18:02:57 32.64 0 40.38 115.74
3/13/17 17:58:01 30.29 0 39.93 117.45
3/13/17 17:53:04 33.78 0 39.93 117.45
3/13/17 17:47:58 32.71 24.4141 40.16 119.82
3/13/17 17:43:14 32.97 48.8281 40.61 125.99
3/13/17 17:37:59 34.55 48.8281 40.16 122.71
3/13/17 17:32:59 29.43 24.4141 39.65 119.29
3/13/17 17:28:04 23.73 0 40.44 118.24
3/13/17 17:23:05 28.57 195.312 42.63 124.94
3/13/17 17:18:00 49.23 195.312 45.5 126.25
3/13/17 17:13:00 41.55 268.555 47.92 126.65
3/13/17 17:08:01 34.51 195.312 47.69 124.81
3/13/17 17:03:01 48.39 366.211 49.61 126.52
3/13/17 16:58:04 17.09 366.211 52.76 126.65
3/13/17 16:53:01 17.53 146.484 49.33 124.42
3/13/17 16:48:02 24.74 219.727 50.17 124.02
3/13/17 16:43:12 42.92 366.211 57.43 123.5
3/13/17 16:38:02 58.37 341.797 52.36 122.97
3/13/17 16:33:03 25.73 537.109 57.99 124.15
3/13/17 16:28:08 77.02 537.109 56.19 124.15
3/13/17 16:23:03 5.29 561.523 63.16 124.02
3/13/17 16:18:03 -8.62 561.523 70.53 122.97
3/13/17 16:13:04 16.62 366.211 59.68 123.89
3/13/17 16:08:04 49.73 610.352 56.75 124.68
3/13/17 16:03:04 85.08 366.211 60.13 120.87
3/13/17 15:58:08 89.84 634.766 68.62 123.5
3/13/17 15:53:10 26.33 610.352 59.84 124.15
3/13/17 15:48:05 27.66 585.938 62.21 124.02
3/13/17 15:43:05 35.05 610.352 61.03 125.33
3/13/17 15:38:06 59.03 415.039 48.88 125.33
3/13/17 15:33:06 44.78 390.625 50.22 123.76
3/13/17 15:28:07 22.55 439.453 53.21 122.44
3/13/17 15:23:12 66.62 732.422 54.84 124.02
3/13/17 15:18:07 71.64 756.836 58.66 123.76
3/13/17 15:13:07 86.07 537.109 57.31 122.58
3/13/17 15:08:07 51.85 634.766 58.94 122.84
3/13/17 15:03:08 5.54 756.836 61.59 124.15
3/13/17 14:58:08 41.42 268.555 54.39 119.69
3/13/17 14:53:08 87.4 683.594 52.81 121
3/13/17 14:48:09 37.87 781.25 55.18 123.23
3/13/17 14:43:09 96.54 781.25 53.43 122.97
3/13/17 14:38:14 140.98 903.32 62.38 122.44
3/13/17 14:33:09 21.5 756.836 64.23 122.58
3/13/17 14:28:13 19.09 854.492 69.29 123.23
3/13/17 14:23:10 100.74 756.836 57.31 122.84
3/13/17 14:18:10 29.97 805.664 61.59 122.44
3/13/17 14:13:11 75.25 805.664 54.67 123.63
3/13/17 14:08:11 56.49 976.562 58.16 123.76
3/13/17 14:03:11 45.58 756.836 49.55 124.68
3/13/17 13:58:11 69.03 781.25 48.59 123.36
3/13/17 13:53:12 85.9 878.906 56.41 121.92
3/13/17 13:48:12 110.87 976.562 61.08 121.79
3/13/17 13:43:12 29.79 976.562 72.67 121.66
3/13/17 13:38:13 96.42 1025.39 58.94 121.66
3/13/17 13:33:14 19.36 952.148 70.42 120.74
3/13/17 13:28:18 22.63 952.148 61.76 121.13
3/13/17 13:23:14 90.46 952.148 54.44 121.66
3/13/17 13:18:14 50.14 854.492 57.99 120.87
3/13/17 13:13:14 29.65 903.32 55.23 122.18
3/13/17 13:08:14 21.82 1049.8 60.07 122.71
3/13/17 13:03:15 88.29 976.562 48.31 124.28
3/13/17 12:58:15 74.93 878.906 54.16 123.23
3/13/17 12:53:15 68.52 805.664 46.96 123.63
3/13/17 12:48:16 70.62 927.734 53.15 123.5
3/13/17 12:43:17 16.57 952.148 64.29 123.1
3/13/17 12:38:16 58.61 878.906 58.49 123.89
3/13/17 12:33:16 105.09 854.492 59.06 122.97
3/13/17 12:28:17 52.5 781.25 55.23 123.1
3/13/17 12:23:17 59.17 781.25 58.49 124.28
3/13/17 12:18:17 20.8 903.32 60.01 124.81
3/13/17 12:13:18 19.22 756.836 55.74 123.89
3/13/17 12:08:18 35.13 781.25 55.51 124.15
3/13/17 12:03:18 33.28 756.836 54.67 123.89
3/13/17 11:58:19 23.02 878.906 53.21 123.5
3/13/17 11:53:19 39.41 830.078 51.07 123.5
3/13/17 11:48:19 12.49 976.562 51.8 124.15
3/13/17 11:43:19 25.22 903.32 51.29 124.81
3/13/17 11:38:20 31.39 805.664 48.82 125.47
3/13/17 11:33:20 10.52 927.734 49.16 125.2
3/13/17 11:28:23 25.51 878.906 49.49 125.47
3/13/17 11:23:21 29.64 830.078 49.16 125.07
3/13/17 11:18:21 24.12 830.078 48.14 124.81
3/13/17 11:13:21 65.93 732.422 41.06 124.55
3/13/17 11:08:22 16.04 781.25 44.21 125.07
3/13/17 11:03:22 27.64 805.664 45.05 124.81
3/13/17 10:58:23 30.47 781.25 46.29 125.47
3/13/17 10:53:22 24.71 830.078 47.81 126.91
3/13/17 10:48:23 39.1 732.422 48.31 126.91
3/13/17 10:43:23 33.01 683.594 44.66 127.83
3/13/17 10:38:23 13.39 756.836 43.47 128.49
3/13/17 10:33:24 16.44 537.109 44.09 125.07
3/13/17 10:28:24 29.28 756.836 42.52 127.44
3/13/17 10:23:24 7.35 537.109 39.71 127.04
3/13/17 10:18:25 19.27 659.18 39.37 128.23
3/13/17 10:13:25 15.13 610.352 38.86 127.31
3/13/17 10:08:25 5.83 439.453 37.29 127.57
3/13/17 10:03:26 39.15 561.523 35.66 128.49
3/13/17 09:58:26 17.09 415.039 34.64 128.23
3/13/17 09:53:29 27.05 244.141 35.66 127.31
3/13/17 09:48:26 29.3 195.312 35.88 127.04
3/13/17 09:43:27 15.74 268.555 35.88 127.57
3/13/17 09:38:27 12.6 219.727 34.59 126.65
3/13/17 09:33:27 15.3 317.383 34.76 127.31
3/13/17 09:28:28 14.54 97.6563 33.86 123.89
3/13/17 09:23:28 22.84 585.938 35.32 129.67
3/13/17 09:18:28 15.85 439.453 32.56 128.88
3/13/17 09:13:29 6.31 537.109 31.55 130.59
3/13/17 09:08:29 1.47 97.6563 28.29 124.68
3/13/17 09:03:29 11.96 24.4141 28.4 122.44
3/13/17 08:58:30 12.03 317.383 29.19 128.36
3/13/17 08:53:30 8.15 366.211 30.14 128.62
3/13/17 08:48:30 17.81 390.625 29.19 128.49
3/13/17 08:43:30 14.15 463.867 29.52 128.49
3/13/17 08:38:31 3.13 268.555 29.3 127.7
3/13/17 08:33:31 14.2 341.797 29.07 128.09
3/13/17 08:28:36 -0.79 268.555 29.47 127.96
3/13/17 08:23:32 7.58 268.555 28.23 127.7
3/13/17 08:18:32 -2.25 244.141 27.22 127.31
3/13/17 08:13:32 -0.28 195.312 26.82 126.65
3/13/17 08:08:33 -0.95 195.312 25.87 125.73
3/13/17 08:03:33 -4.04 122.07 24.63 124.02
3/13/17 07:58:33 -2.16 97.6563 24.29 123.5
3/13/17 07:53:34 -4.87 0 24.07 117.06
3/13/17 07:48:34 -4.37 0 24.01 119.42
3/13/17 07:43:34 -4.42 0 24.12 116.53
3/13/17 07:38:35 -8.31 0 24.57 112.85
3/13/17 07:33:35 -20.28 0 25.02 111.01
3/13/17 07:28:35 -7.58 0 24.86 108.52
3/13/17 07:23:36 -3.99 0 26.04 104.31
3/13/17 07:18:36 -4.09 0 25.14 98.67
3/13/17 07:13:36 -3.56 0 25.64 90.26
3/13/17 07:08:37 -11.95 0 24.41 81.19
3/13/17 07:03:37 -7.93 0 24.97 70.55
3/13/17 06:58:37 -6.05 0 22.72 50.32
3/13/17 06:53:37 -6.36 0 23.06 22.6
3/13/17 06:48:38 -5.8 0 23.34 8.54
3/13/17 06:43:38 -4.71 0 23.34 2.5
3/13/17 06:38:38 -5.91 0 22.72 0.39
3/13/17 06:33:39 -2.58 0 23.06 0
3/13/17 06:28:39 -5.67 0 22.38 0
3/13/17 06:23:39 -6.96 0 22.61 0
3/13/17 06:18:40 -7.44 0 22.38 0.26
3/13/17 06:13:40 -6.99 0 22.44 0
3/13/17 06:08:40 -6.26 0 23.22 0.13
3/13/17 06:03:41 -5.81 0 22.89 0
3/13/17 05:58:46 -3.93 0 23.62 0.13
3/13/17 05:53:41 -5.39 0 24.41 0
3/13/17 05:48:42 -6.15 0 24.24 0.13
3/13/17 05:43:47 -8.3 0 25.36 0.13
3/13/17 05:38:42 -6.75 0 24.97 0.26
3/13/17 05:33:43 -10.49 0 24.12 0.39
3/13/17 05:28:43 -6.35 0 23.96 0.26
3/13/17 05:23:43 -6.23 0 22.55 0
3/13/17 05:19:47 -6.33 0 22.83 0.26
3/13/17 05:13:44 -6.04 0 23.22 0.53
3/13/17 05:08:44 -6.78 0 22.77 0
3/13/17 05:03:50 -6 0 22.61 0.39
3/13/17 04:58:45 -4.64 0 23.73 0.26
3/13/17 04:53:45 -6.45 0 23.84 0.13
3/13/17 04:48:46 -8.75 0 23.79 0.53
3/13/17 04:43:46 -4.09 0 23.96 0.13
3/13/17 04:38:46 -6.39 0 25.31 0.26
3/13/17 04:33:46 -4.97 0 23.51 0.13
3/13/17 04:28:47 -5.67 0 23.67 0.26
3/13/17 04:23:47 -6.65 0 24.35 0.13
3/13/17 04:18:47 -5.46 0 23.17 0
3/13/17 04:13:48 -6.3 0 23.45 0
3/13/17 04:08:53 -5.24 0 24.01 0
3/13/17 04:03:48 -5.29 0 23.34 0.39
3/13/17 03:58:49 -6.3 0 23.45 0.79
3/13/17 03:53:49 -6.3 0 24.63 0.39
3/13/17 03:48:49 -5.52 0 24.52 0
3/13/17 03:43:50 -4.26 0 24.63 0.13
3/13/17 03:38:50 -5.29 0 24.97 0.26
3/13/17 03:33:50 -5.35 0 25.02 0.39
3/13/17 03:28:51 -4.83 0 25.08 0.26
3/13/17 03:23:51 -3.84 0 25.7 0.13
3/13/17 03:18:51 -3.36 0 25.98 0.13
3/13/17 03:13:52 -11.22 0 26.43 0.26
3/13/17 03:08:52 -3.92 0 26.04 0.79
3/13/17 03:03:52 -2.74 0 25.81 0.53
3/13/17 02:58:53 -4.55 0 27.56 0.13
3/13/17 02:53:53 -4.41 0 26.82 0.13
3/13/17 02:48:53 -3.98 0 26.82 0.66
3/13/17 02:43:54 -6.63 0 26.32 0
3/13/17 02:38:54 -11.04 0 26.54 0.39
3/13/17 02:33:54 -5.21 0 26.09 0.66
3/13/17 02:28:54 -3.56 0 26.04 0.53
3/13/17 02:23:55 0.86 0 27.27 0.39
3/13/17 02:18:55 -3.98 0 26.49 0.13
3/13/17 02:13:55 -8.06 0 25.81 0.13
3/13/17 02:08:56 -5.54 0 25.92 0
3/13/17 02:03:56 -4.82 0 27.67 0.92
3/13/17 01:58:56 -4.12 0 27.22 0.26
3/13/17 01:53:57 -3.9 0 26.49 0
3/13/17 01:48:57 2.52 0 26.49 0.92
3/13/17 01:43:57 -3.39 0 26.88 0.79
3/13/17 01:38:58 -4.52 0 26.99 0.92
3/13/17 01:33:58 -5.52 0 27.78 0.39
3/13/17 01:28:58 -5.14 0 27.5 0.92
3/13/17 01:23:59 -1.89 0 27.95 0
3/13/17 01:19:00 -9.25 0 27.84 0.92
3/13/17 01:13:59 -9.71 0 28.74 0
3/13/17 01:09:05 -2.17 0 28.96 0
3/13/17 01:04:09 -0.97 0 28.29 0
3/13/17 00:59:00 -4.54 0 29.24 0.13
3/13/17 00:54:10 -6.03 0 28.4 0.26
3/13/17 00:49:01 -3.76 0 27.89 0
3/13/17 00:44:01 -2.23 0 28.68 0.13
3/13/17 00:39:01 -5.87 0 28.79 0.79
3/13/17 00:34:03 -5.04 0 28.96 0.26
3/13/17 00:29:07 -2.02 0 29.02 0.53
3/13/17 00:24:07 -1.87 0 29.36 0.66
3/13/17 00:19:07 -2.57 0 29.75 0.39
3/13/17 00:14:03 -1.99 0 30.09 0.13
3/13/17 00:09:03 -36.62 0 30.03 0.26
3/13/17 00:04:09 -13.29 0 28.91 0.13
3/12/17 23:59:04 1.54 0 28.96 0.26
3/12/17 23:54:04 -0.95 0 29.07 0.39
3/12/17 23:49:04 -4.37 0 29.36 0
3/12/17 23:44:05 -1.41 0 28.57 0.66
3/12/17 23:39:05 -0.91 0 28.91 0
3/12/17 23:34:05 0.58 0 30.31 0.53
3/12/17 23:29:06 -0.73 0 30.99 0
3/12/17 23:24:06 2.43 0 30.87 0.53
3/12/17 23:19:06 -11.81 0 31.66 0.66
3/12/17 23:14:07 -0.46 0 30.65 0.13
3/12/17 23:09:07 -2.11 0 28.91 0.66
3/12/17 23:04:07 0.4 0 29.81 0.13
3/12/17 22:59:08 1.5 0 29.75 0
3/12/17 22:54:08 -3.91 0 30.42 0.26
3/12/17 22:49:11 -7.11 0 30.93 0.53
3/12/17 22:44:09 -5.31 0 30.26 0
3/12/17 22:39:09 -0.52 0 28.79 0.13
3/12/17 22:34:09 -15.89 24.4141 28.68 0.13
3/12/17 22:29:09 -1.7 0 29.19 0
3/12/17 22:24:10 -0.47 0 28.68 0
3/12/17 22:19:10 -0.55 0 28.29 0.26
3/12/17 22:14:10 0.74 0 29.75 0.26
3/12/17 22:09:16 2.01 0 30.82 0
3/12/17 22:04:14 0.75 0 29.47 0.26
3/12/17 21:59:16 -0.98 0 30.82 0.66
3/12/17 21:54:12 0.3 0 31.83 0.53
3/12/17 21:49:12 -4.05 0 30.14 0
3/12/17 21:44:12 0.72 0 29.97 0.53
3/12/17 21:39:13 -6.75 0 30.03 0
3/12/17 21:34:23 -1.11 0 29.3 0.13
3/12/17 21:29:13 0.99 0 29.97 0.39
3/12/17 21:24:14 -0.33 0 29.36 0
3/12/17 21:19:14 -25.36 0 30.31 0
3/12/17 21:14:19 -1.32 0 29.3 0
3/12/17 21:09:14 -3.25 0 30.2 0
3/12/17 21:04:15 -4.85 0 29.47 0
3/12/17 20:59:20 0.94 0 29.41 0
3/12/17 20:54:15 -10.18 0 29.86 0
3/12/17 20:49:16 1.39 0 29.24 0
3/12/17 20:44:16 1.13 0 29.64 0
3/12/17 20:39:16 0.53 0 29.75 0.13
3/12/17 20:34:17 2.26 0 30.09 0.26
3/12/17 20:29:17 -0.09 0 31.04 0
3/12/17 20:24:20 -0.08 0 30.14 0
3/12/17 20:19:18 1.79 0 29.81 0
3/12/17 20:14:18 2.63 0 30.2 0.39
3/12/17 20:09:18 1.99 0 30.76 0
3/12/17 20:04:18 -2.23 0 32.06 0.26
3/12/17 19:59:19 2.38 0 30.65 0
3/12/17 19:54:19 8.05 0 31.61 0.26
3/12/17 19:49:19 2.56 0 30.54 0
3/12/17 19:44:25 1.3 0 31.66 0
3/12/17 19:39:20 3.86 0 31.16 1.05
3/12/17 19:34:20 -10.83 0 31.94 1.84
3/12/17 19:29:26 2.52 0 31.89 7.09
3/12/17 19:24:27 13.58 0 32.62 18
3/12/17 19:19:21 9.75 0 33.69 38.63
3/12/17 19:14:27 8.41 0 32.96 59.51
3/12/17 19:09:22 9.55 0 33.07 77.12
3/12/17 19:04:22 9.86 0 33.91 88.94
3/12/17 18:59:22 1.42 0 34.14 95.91
3/12/17 18:54:23 16.07 0 33.63 101.95
3/12/17 18:49:31 -15.24 0 34.7 104.71
3/12/17 18:44:24 10.16 0 35.49 108.52
3/12/17 18:39:29 14.21 0 35.54 110.1
3/12/17 18:34:24 12.58 0 35.09 113.12
3/12/17 18:29:24 -17.48 0 37.01 116.27
3/12/17 18:24:25 26.35 0 34.42 117.98
3/12/17 18:19:25 13.53 0 36.16 119.82
3/12/17 18:14:25 18.73 0 36.78 118.37
3/12/17 18:09:26 24.97 0 36.11 117.98
3/12/17 18:04:26 14.4 0 36.61 117.71
3/12/17 17:59:26 13.43 0 37.34 118.37
3/12/17 17:54:26 14.77 24.4141 36.05 120.47
3/12/17 17:49:27 14.6 48.8281 37.74 121.26
3/12/17 17:44:27 15.86 0 38.02 122.05
3/12/17 17:39:27 20.11 24.4141 38.81 125.2
3/12/17 17:34:28 17.75 24.4141 37.63 126.78
3/12/17 17:29:29 24.18 24.4141 37.46 127.83
3/12/17 17:24:28 20.07 48.8281 39.14 121.79
3/12/17 17:19:29 3.09 268.555 43.7 129.28
3/12/17 17:14:29 16.8 195.312 41.68 127.31
3/12/17 17:09:29 31.28 341.797 52.36 128.49
3/12/17 17:04:29 17.24 146.484 44.54 124.28
3/12/17 16:59:30 43.51 341.797 47.19 128.75
3/12/17 16:54:30 -0.98 73.2422 48.14 122.05
3/12/17 16:49:30 1.01 170.898 54.39 122.31
3/12/17 16:44:32 24.28 170.898 39.26 126.39
3/12/17 16:39:41 31.77 122.07 50.34 125.73
3/12/17 16:34:31 18.76 73.2422 40.72 125.2
3/12/17 16:29:32 16.3 24.4141 38.81 122.71
3/12/17 16:24:32 -15.69 97.6563 39.43 124.81
3/12/17 16:19:32 27.91 122.07 39.03 126.25
3/12/17 16:14:32 32.6 146.484 43.19 132.3
3/12/17 16:09:38 23.45 97.6563 38.47 125.73
3/12/17 16:04:38 9.03 122.07 38.92 126.91
3/12/17 16:00:24 26.86 97.6563 39.26 125.86
3/12/17 15:54:34 50.38 122.07 40.33 124.55
3/12/17 15:49:34 46.24 170.898 41.45 125.6
3/12/17 15:44:34 30.82 244.141 43.25 128.36
3/12/17 15:39:34 20.34 97.6563 38.53 125.86
3/12/17 15:34:35 27.12 122.07 39.65 126.65
3/12/17 15:29:35 14.73 268.555 42.91 126.12
3/12/17 15:24:36 26.24 244.141 42.29 127.44
3/12/17 15:19:36 27.39 195.312 38.75 127.31
3/12/17 15:14:36 6.38 195.312 40.21 126.65
3/12/17 15:09:36 35.32 195.312 42.46 127.31
3/12/17 15:04:37 29.84 146.484 38.36 127.04
3/12/17 14:59:37 31.09 97.6563 38.64 125.2
3/12/17 14:54:37 24.25 170.898 36.67 127.17
3/12/17 14:49:38 22.98 122.07 37.96 125.99
3/12/17 14:44:38 24.17 122.07 39.54 124.81
3/12/17 14:39:38 29.39 146.484 41.28 125.47
3/12/17 14:34:38 25.16 170.898 41 126.65
3/12/17 14:29:39 43.03 122.07 37.74 126.25
3/12/17 14:24:39 25.84 122.07 38.08 125.73
3/12/17 14:19:39 46.75 122.07 37.46 125.33
3/12/17 14:14:40 27.43 195.312 39.48 126.25
3/12/17 14:09:40 18.81 317.383 42.52 127.96
3/12/17 14:04:43 24.46 195.312 38.75 125.99
3/12/17 13:59:46 22.01 219.727 42.8 126.39
3/12/17 13:54:46 34.27 146.484 38.53 126.52
3/12/17 13:49:41 20.85 170.898 37.57 126.12
3/12/17 13:44:41 19.5 268.555 40.55 128.09
3/12/17 13:39:42 41.1 146.484 37.01 127.17
3/12/17 13:34:42 29.38 146.484 36.89 126.78
3/12/17 13:29:42 20.01 146.484 35.94 126.52
3/12/17 13:24:43 33.14 146.484 36.33 126.39
3/12/17 13:19:43 17.21 170.898 36.33 127.31
3/12/17 13:14:43 36.92 170.898 34.7 127.04
3/12/17 13:09:44 28.87 146.484 36.95 127.04
3/12/17 13:04:44 21.92 219.727 36.39 127.57
3/12/17 12:59:44 33.91 146.484 34.98 127.31
3/12/17 12:54:44 32.18 97.6563 35.43 126.52
3/12/17 12:49:45 32.71 146.484 35.21 126.25
3/12/17 12:44:50 29.11 122.07 34.87 126.25
3/12/17 12:39:45 26.31 122.07 35.15 126.78
3/12/17 12:34:46 19.99 97.6563 35.83 126.39
3/12/17 12:29:46 13.48 170.898 37.79 126.78
3/12/17 12:24:46 39.33 122.07 34.7 126.91
3/12/17 12:19:47 21.37 195.312 34.87 127.83
3/12/17 12:14:52 25.62 122.07 35.54 126.39
3/12/17 12:09:47 25.97 122.07 37.29 126.78
3/12/17 12:04:48 20.27 122.07 37.12 126.78
3/12/17 11:59:48 18.79 122.07 37.06 125.86
3/12/17 11:54:48 25.21 170.898 36.16 126.78
3/12/17 11:49:48 19.15 170.898 35.66 126.39
3/12/17 11:44:49 24.08 146.484 36.72 126.65
3/12/17 11:39:49 25.7 195.312 36.84 126.39
3/12/17 11:34:49 27.69 170.898 37.68 126.25
3/12/17 11:29:50 24.73 170.898 38.64 126.65
3/12/17 11:24:55 43.69 146.484 38.19 125.99
3/12/17 11:19:50 28.52 195.312 39.43 125.86
3/12/17 11:14:51 55.52 244.141 39.43 125.86
3/12/17 11:09:51 42.2 195.312 39.65 124.68
3/12/17 11:04:51 35.22 292.969 44.66 125.6
3/12/17 10:59:51 36.46 1049.8 40.61 127.44
3/12/17 10:54:52 44.46 1098.63 42.69 130.72
3/12/17 10:49:52 61.12 415.039 44.94 124.81
3/12/17 10:44:57 21.76 146.484 39.93 124.15
3/12/17 10:39:53 40.07 122.07 45.5 119.55
3/12/17 10:34:58 44.44 292.969 40.94 124.02
3/12/17 10:29:53 29.76 73.2422 37.68 121.39
3/12/17 10:24:54 38.81 903.32 44.71 128.49
3/12/17 10:19:54 19.65 122.07 44.04 117.98

Previous 1 2 3 4 5 6 7 8 9 10 11 12 13 14 15 16 17